Weather History for Marathon, FL

Change the Weather History Date:

Thursday, March 7, 2013

  Actual Average Record
Temperature  
Mean Temperature 61 °F 73 °F  
Max Temperature 66 °F 78 °F 87 °F (2003)
Min Temperature 55 °F 68 °F 55 °F (2013)
Degree Days  
Heating Degree Days 4 0  
Month to date heating degree days 19 0  
Since 1 July heating degree days 32 75  
Cooling Degree Days 0 8  
Month to date cooling degree days 6 56  
Year to date cooling degree days 601 438  
Growing Degree Days 10 (Base 50)    
Moisture  
Dew Point 43 °F    
Average Humidity 54    
Maximum Humidity 67    
Minimum Humidity 40    
Precipitation  
Precipitation 0.00 in 0.08 in 0.44 in (2002)
Month to date precipitation 0.15 0.53  
Year to date precipitation 2.53 4.35  
Snow  
Snow 0.00 in - - ()
Month to date snowfall 0.0  
Since 1 July snowfall 0.0  
Snow Depth 0.00 in    
Sea Level Pressure  
Sea Level Pressure 30.17 in    
Wind  
Wind Speed 9 mph (NNW)    
Max Wind Speed 18 mph    
Max Gust Speed 26 mph    
Visibility 10 miles    
Events      
T = Trace of Precipitation, MM = Missing Value Source: NWS Daily Summary

Daily Weather History Graph

Daily Weather History Graph

Search for Another Location

Airport:

Trip Planner

Search our weather history database for the weather conditions in past years. The results will help you decide how hot, cold, wet, or windy it might be!

Date:

Astronomy

Mar. 07, 2013 Rise Set
Actual Time 6:40 AM EST 6:29 PM EST
Civil Twilight 6:18 AM EST 6:52 PM EST
Nautical Twilight 5:51 AM EST 7:18 PM EST
Astronomical Twilight 5:25 AM EST 7:45 PM EST
Moon 3:17 AM EST (3/7) 2:36 PM EST (3/7)
Length of Visible Light 12h 34m
Length of Day
11h 48m
Waning Crescent, 20% of the Moon is Illuminated
Mar 7
Waning Crescent
Mar 11
New
Mar 19
First Quarter
Mar 27
Full
Apr 3
Last Quarter

Hourly Weather History & Observations

Time (EST) Temp. Dew Point Humidity Pressure Visibility Wind Dir Wind Speed Gust Speed Precip Events Conditions
12:53 AM 62.1 °F 46.0 °F 56% 30.13 in 10.0 mi NNW 15.0 mph 23.0 mph N/A   Clear
1:53 AM 62.1 °F 46.9 °F 58% 30.11 in 10.0 mi NNW 12.7 mph 21.9 mph N/A   Partly Cloudy
2:53 AM 61.0 °F 48.9 °F 64% 30.10 in 10.0 mi North 10.4 mph 20.7 mph N/A   Mostly Cloudy
3:53 AM 57.0 °F 46.0 °F 67% 30.10 in 10.0 mi North 15.0 mph 24.2 mph N/A   Clear
4:53 AM 57.0 °F 39.0 °F 51% 30.12 in 10.0 mi NNE 13.8 mph 21.9 mph N/A   Clear
5:53 AM 55.9 °F 37.9 °F 51% 30.14 in 10.0 mi North 10.4 mph 21.9 mph N/A   Clear
6:53 AM 55.0 °F 35.1 °F 47% 30.17 in 10.0 mi North 8.1 mph 19.6 mph N/A   Clear
7:53 AM 57.0 °F 37.0 °F 47% 30.18 in 10.0 mi North 9.2 mph 16.1 mph N/A   Clear
8:53 AM 59.0 °F 39.0 °F 48% 30.19 in 10.0 mi North 6.9 mph - N/A   Clear
9:53 AM 61.0 °F 39.9 °F 46% 30.21 in 10.0 mi North 9.2 mph - N/A   Clear
10:53 AM 63.0 °F 39.0 °F 41% 30.22 in 10.0 mi North 8.1 mph - N/A   Clear
11:53 AM 63.0 °F 39.0 °F 41% 30.22 in 10.0 mi NNW 8.1 mph - N/A   Clear
12:53 PM 64.0 °F 39.0 °F 40% 30.18 in 10.0 mi Variable 5.8 mph - N/A   Clear
1:53 PM 64.0 °F 39.9 °F 41% 30.16 in 10.0 mi NNW 6.9 mph - N/A   Clear
2:53 PM 64.9 °F 39.9 °F 40% 30.16 in 10.0 mi NW 9.2 mph - N/A   Clear
3:53 PM 64.0 °F 39.9 °F 41% 30.15 in 10.0 mi WNW 9.2 mph - N/A   Clear
4:53 PM 63.0 °F 43.0 °F 48% 30.16 in 10.0 mi WNW 10.4 mph - N/A   Clear
5:53 PM 62.1 °F 44.1 °F 52% 30.16 in 10.0 mi NW 11.5 mph - N/A   Clear
6:53 PM 60.1 °F 44.1 °F 55% 30.17 in 10.0 mi NW 5.8 mph - N/A   Clear
7:53 PM 61.0 °F 46.0 °F 58% 30.18 in 10.0 mi NW 8.1 mph - N/A   Clear
8:53 PM 61.0 °F 46.9 °F 60% 30.19 in 10.0 mi NNW 8.1 mph - N/A   Clear
9:53 PM 61.0 °F 48.0 °F 62% 30.19 in 10.0 mi Variable 5.8 mph - N/A   Clear
10:53 PM 61.0 °F 48.9 °F 64% 30.20 in 10.0 mi Variable 3.5 mph - N/A   Clear
11:53 PM 61.0 °F 48.9 °F 64% 30.18 in 10.0 mi North 6.9 mph - N/A   Clear